STARLINK-11443, 62512

Orbit data source: Space-Track

STARLINK-11443, 62512 is a payload satellite owned by SpaceX/Seattle (US) in LEO that was launched on Wed, 08 Jan 2025 UTC via an FALCON 9 launch vehicle from the Air Force Eastern Test Range (AFETR). Payload-class satellites include a variety of spacecraft equipped with specific instruments for various scientific and technological missions. These include communications satellites like Starlink; space stations such as the ISS; scientific satellites like the Hubble; Earth observation satellites from companies like Planet Labs, Umbra, and HawkEye 360; GPS; miniature CubeSats for education and research; and military/defense satellites.

Loading next visibility...
Identifier
62512, 2025-004B
Orbit
LEO
Country
Flag of USUS
Related business
Manufacturer
SpaceX/Seattle
Mission
Operational Commercial Communications
Bus & Motor
STARLINK V2MD, Unknown motor
Mass
960 kg wet, ~910 kg dry
Launch date (UTC)
2025-01-08 (2 years ago)
Launch vehicle
FALCON 9
Launch site
Air Force Eastern Test Range (AFETR)
Object type
Payload
Rocket body
Debris
Shape & HBR
Box + 2 Pan, 18.1 m
Radar Cross Section
36.964 m², Large (>1 m²)

Expand to show TLE details & history
Last TLE update: 10 hours ago

TLE from 10 hours ago
0 STARLINK-11443
1 62512U 25004B   26254.73291834  .00192745  00000-0  14697-2 0  9990
2 62512  42.9987  29.7402 0001655 276.6640  83.4040 15.70861582 96466
Epoch: 2026-09-11T17:35Z
TLE epoch observation values (Epoch: 2026-09-11T17:35:24.144Z)
Latitude
0.00003°
Longitude
135.13759°
Altitude
356.077 km
Speed
7.697 km/s
True Right ascension
01h 58m 57s
True Declination
0° 00' 00"
Sunlit
Object was in full shadow at epoch
Visualization orbit readout
Latitude
Unknown
Longitude
Unknown
Altitude
Unknown
Speed
Unknown
Apparent Right ascension
Unknown
Apparent Declination
Unknown
Sunlit
N/A
Visualization observer readout
Local Sidereal Time
20:07:20
Azimuth
Unknown
Elevation
Unknown
Doppler factor
Unknown
Orbital elements
Apogee altitude
359.53 km
Perigee altitude
357.3 km
Semi-major axis
6,736.552 km
Eccentricity
0.00017
Inclination
42.9987°
RAAN
29.7402°
Arg. of periapsis
276.664°
True anomaly
83.42284°
Mean anomaly
83.404°
Eccentric anomaly
83.41342°
Mean motion
3.92542 °/min
Orbital period
91.71 mins
BSTAR
0.0014697
Loading maneuver chart data...
Computing Atmospheric mass density...
Loading historical data...
Loading historical data...
Loading historical data...
Loading historical data...
Loading historical data...
Loading historical data...
Loading historical data...

Documentation

Showing up to 5 results
|